This demonstration page uses our WeatherBlox Daily Observations layout. Learn more.

40.92945, -100.16068

Hourly Observations for April 23, 2018

Temp ( °F °C ) Dew Point ( °F °C ) Humidity (%) Winds ( mph kmh ) Pressure ( in mb ) Visibility ( mi km ) Precip ( " mm )
12:15 am 00:15 Clear 42 5.3 38 3.2 86 86 W 5 7 30.21 1023 7 11.26538 0 0
12:35 am 00:35 Clear 40 4.2 36 2.3 88 88 Calm 30.24 1024 7 11.26538 0 0
12:55 am 00:55 Clear 40 4.4 37 2.5 88 88 Calm 30.24 1024 7 11.26538 0 0
1:15 am 01:15 Clear 40 4.6 37 2.6 87 87 WNW 3 6 30.24 1024 7 11.26538 0 0
1:35 am 01:35 Clear 40 4.2 36 2.4 88 88 WNW 5 7 30.24 1024 10 16.0934 0 0
1:55 am 01:55 Clear 38 3.2 35 1.6 89 89 NNW 3 6 30.24 1024 7 11.26538 0 0
2:15 am 02:15 Clear 38 3.5 36 2 90 90 NNW 5 7 30.24 1024 7 11.26538 0 0
2:35 am 02:35 Clear 38 3.3 35 1.7 89 89 NW 6 9 30.24 1024 10 16.0934 0 0
2:55 am 02:55 Clear 38 3.1 35 1.7 91 91 NNW 6 9 30.24 1024 7 11.26538 0 0
3:15 am 03:15 Clear 37 2.8 35 1.5 91 91 Calm 30.24 1024 7 11.26538 0 0
3:35 am 03:35 Clear 37 2.7 34 1.2 90 90 NNW 3 6 30.24 1024 7 11.26538 0 0
3:55 am 03:55 Clear 36 2.2 34 0.9 91 91 Calm 30.24 1024 10 16.0934 0 0
4:15 am 04:15 Clear 36 2.4 34 0.9 90 90 WNW 3 6 30.24 1024 10 16.0934 0 0
4:35 am 04:35 Partly Cloudy 36 2.3 34 1 91 91 Calm 30.24 1024 7 11.26538 0 0
4:55 am 04:55 Mostly Cloudy 36 2.2 34 1 92 92 W 3 6 30.24 1024 7 11.26538 0 0
5:15 am 05:15 Cloudy 36 2.3 34 1.1 92 92 W 5 7 30.24 1024 7 11.26538 0 0
5:35 am 05:35 Cloudy 37 2.6 35 1.4 92 92 W 7 11 30.24 1024 7 11.26538 0 0
5:55 am 05:55 Cloudy with Mist and Fog 38 3.3 36 2.2 93 93 Calm 30.24 1024 5 8.0467 0 0
6:15 am 06:15 Cloudy 38 3.6 37 2.5 93 93 WNW 3 6 30.24 1024 7 11.26538 0 0
6:35 am 06:35 Cloudy 39 3.8 37 2.5 91 91 Calm 30.24 1024 7 11.26538 0 0
6:55 am 06:55 Mostly Cloudy with Mist and Fog 38 3.4 36 2 91 91 NW 3 6 30.24 1024 5 8.0467 0 0
7:15 am 07:15 Cloudy with Mist and Fog 38 3.5 36 2.2 91 91 Calm 30.24 1024 5 8.0467 0 0
7:35 am 07:35 Cloudy with Mist and Fog 39 4.1 37 2.8 91 91 Calm 30.24 1024 5 8.0467 0 0
7:55 am 07:55 Partly Cloudy with Mist and Fog 40 4.4 38 3.1 91 91 Calm 30.24 1024 5 8.0467 0 0
8:15 am 08:15 Sunny 42 5.6 39 3.8 88 88 Calm 30.21 1023 7 11.26538 0 0
8:35 am 08:35 Sunny 44 6.6 39 3.9 83 83 Calm 30.21 1023 10 16.0934 0 0
8:55 am 08:55 Sunny 47 8.1 41 4.8 80 80 Calm 30.21 1023 10 16.0934 0 0
9:15 am 09:15 Sunny 50 10.2 41 5.1 71 71 Calm 30.18 1022 10 16.0934 0 0
9:35 am 09:35 Sunny 52 10.9 41 5.2 68 68 Calm 30.18 1022 7 11.26538 0 0
9:55 am 09:55 Sunny 53 11.8 43 6 68 68 Calm 30.15 1021 7 11.26538 0 0
10:15 am 10:15 Sunny 55 12.9 43 6.1 64 64 SE 3 6 30.15 1021 10 16.0934 0 0
10:35 am 10:35 Sunny 57 14 42 5.6 57 57 ESE 6 9 30.15 1021 7 11.26538 0 0
10:55 am 10:55 Sunny 59 15.1 42 5.6 53 53 ESE 7 11 30.12 1020 7 11.26538 0 0
11:15 am 11:15 Sunny 61 15.9 42 5.6 51 51 SE 9 15 30.12 1020 10 16.0934 0 0
11:35 am 11:35 Sunny 61 16.3 41 4.9 47 47 S 9 15 30.12 1020 10 16.0934 0 0
11:55 am 11:55 Sunny 62 16.7 40 4.4 44 44 SE 8 13 30.12 1020 10 16.0934 0 0
12:15 pm 12:15 Sunny 63 17.2 40 4.4 43 43 SSE 8 13 30.12 1020 10 16.0934 0 0
12:35 pm 12:35 Sunny 64 17.7 40 4.6 42 42 S 8 13 30.12 1020 10 16.0934 0 0
12:55 pm 12:55 Partly Cloudy 65 18.1 40 4.2 40 40 S 7 11 30.06 1018 10 16.0934 0 0
1:15 pm 13:15 Partly Cloudy 65 18.3 40 4.5 40 40 SSE 9 15 30.06 1018 10 16.0934 0 0
1:35 pm 13:35 Partly Cloudy 66 18.9 40 4.5 39 39 S 7 11 30.06 1018 10 16.0934 0 0
1:55 pm 13:55 Partly Cloudy 66 19 40 4.3 38 38 S 13 20 30.03 1017 10 16.0934 0 0
2:15 pm 14:15 Mostly Cloudy 65 18.6 39 3.9 38 38 ESE 7 11 30.03 1017 10 16.0934 0 0
2:35 pm 14:35 Mostly Cloudy 67 19.3 39 4 37 37 SSW 14 22 30.03 1017 10 16.0934 0 0
2:55 pm 14:55 Mostly Cloudy 68 19.9 39 3.7 34 34 SSE 8 13 30.03 1017 10 16.0934 0 0
3:15 pm 15:15 Cloudy 69 20.7 40 4.6 35 35 SSE 10 17 29.97 1015 10 16.0934 0 0
3:35 pm 15:35 Mostly Cloudy 67 19.6 39 3.8 35 35 SE 7 11 30 1016 10 16.0934 0 0
3:55 pm 15:55 Cloudy 69 20.6 39 3.7 33 33 S 8 13 29.97 1015 10 16.0934 0 0
4:15 pm 16:15 Partly Cloudy 70 21.1 39 3.8 32 32 S 10 17 29.94 1014 10 16.0934 0 0
4:35 pm 16:35 Partly Cloudy 68 19.9 38 3.6 34 34 SSE 7 11 29.97 1015 10 16.0934 0 0
4:55 pm 16:55 Sunny 69 20.8 39 3.8 33 33 SE 7 11 29.94 1014 10 16.0934 0 0
5:15 pm 17:15 Partly Cloudy 69 20.7 38 3.4 32 32 SSE 9 15 29.94 1014 10 16.0934 0 0
5:35 pm 17:35 Partly Cloudy 69 20.7 38 3.1 31 31 SSW 9 15 29.94 1014 10 16.0934 0 0
5:55 pm 17:55 Sunny 68 20.1 38 3.2 33 33 SSE 10 17 29.97 1015 10 16.0934 0 0
6:15 pm 18:15 Sunny 69 20.5 38 3.2 32 32 SSE 7 11 29.94 1014 10 16.0934 0 0
6:35 pm 18:35 Sunny 69 20.4 38 3.6 33 33 S 6 9 29.94 1014 10 16.0934 0 0
6:55 pm 18:55 Partly Cloudy 68 20.1 38 3.5 34 34 SE 6 9 29.97 1015 10 16.0934 0 0
7:15 pm 19:15 Partly Cloudy 66 19.1 39 4 37 37 SSE 8 13 29.97 1015 10 16.0934 0 0
7:35 pm 19:35 Partly Cloudy 64 17.7 40 4.5 42 42 SSE 9 15 29.97 1015 10 16.0934 0 0
7:55 pm 19:55 Sunny 63 17 40 4.7 44 44 SSE 7 11 29.97 1015 10 16.0934 0 0
8:15 pm 20:15 Sunny 61 16 41 5.2 49 49 SSE 8 13 30 1016 10 16.0934 0 0
8:35 pm 20:35 Clear 60 15.5 40 4.6 48 48 SSE 7 11 30 1016 10 16.0934 0 0
8:55 pm 20:55 Clear 58 14.2 40 4.6 53 53 SSE 7 11 30 1016 10 16.0934 0 0
9:15 pm 21:15 Clear 57 13.8 40 4.6 54 54 SSE 7 11 30 1016 10 16.0934 0 0
9:35 pm 21:35 Clear 57 13.8 40 4.2 53 53 SE 6 9 30 1016 10 16.0934 0 0
9:55 pm 21:55 Clear 56 13.5 40 4.2 54 54 SE 7 11 30 1016 10 16.0934 0 0
10:15 pm 22:15 Clear 55 13 39 4.1 55 55 SE 6 9 30.06 1018 10 16.0934 0 0
10:35 pm 22:35 Clear 55 13 39 4 55 55 SSE 5 7 30.06 1018 10 16.0934 0 0
10:55 pm 22:55 Clear 51 10.5 39 3.9 64 64 Calm 30.09 1019 10 16.0934 0 0
11:15 pm 23:15 Clear 48 8.7 39 3.9 72 72 Calm 30.12 1020 10 16.0934 0 0
11:35 pm 23:35 Clear 47 8.6 39 4 73 73 ESE 3 6 30.12 1020 10 16.0934 0 0
11:55 pm 23:55 Clear 47 8.5 39 3.7 72 72 E 3 6 30.12 1020 10 16.0934 0 0

Powered by AerisWeather